Location: *
(57.8420°S, 159.8600°W)
Time: 05:19:43
(UTC+00:00)

IDEFIX/ARIANE 42P - Pass Details

Date: 18 May 2021
Orbit: 786 x 802 km, 98.4° (Epoch: 20 June)

Event Time Altitude Azimuth Distance (km) Brightness Sun altitude
Rises 03:06:16 0° 166° (SSE) 3,332 5.4 -5.3°
Reaches altitude 10° 03:08:49 10° 175° (S) 2,395 4.7 -5.6°
Maximum altitude 03:13:27 32° 236° (SW) 1,350 4.1 -6.2°
Drops below altitude 10° 03:18:03 10° 297° (WNW) 2,372 6.9 -6.7°
Sets 03:20:34 0° 306° (NW) 3,294 7.9 -7.0°
